Regional Weather Roundup
Issued by NWS

Home | Current Version | Previous Version | Text Only | Print | Product List | Glossary On
Versions: 1 2 3 4 5 6 7 8 9 10 11 12 13 14 15 16 17 18 19 20 21 22 23 24 25 26 27 28 29 30 31 32 33 34 35 36 37 38 39 40 41 42 43 44 45 46 47 48 49 50
000
ASUS43 KFSD 041710
RWRSD

WEATHER ROUNDUP FOR SOUTH DAKOTA
NATIONAL WEATHER SERVICE SIOUX FALLS SD
1200 PM CDT WED MAY 04 2016

NOTE: "FAIR" INDICATES FEW OR NO CLOUDS BELOW 12,000 FEET WITH NO
SIGNIFICANT WEATHER AND/OR OBSTRUCTIONS TO VISIBILITY.


SDZ001>005-009-010-012>017-041800-
NORTHWEST AND NORTH CENTRAL SOUTH DAKOTA

CITY           SKY/WX    TMP DP  RH WIND       PRES   REMARKS
BUFFALO          N/A     75  38  26 SW10      30.04F
FAITH            N/A     69  42  37 S8        30.11S
MOBRIDGE       SUNNY     65  38  36 S6        30.09F
$$

SDZ012>016-024>037-041>051-057-063-072>074-041800-
SOUTHWEST AND SOUTH CENTRAL SOUTH DAKOTA

CITY           SKY/WX    TMP DP  RH WIND       PRES   REMARKS
RAPID CTY ARPT SUNNY     71  41  33 S8        30.14S
PIERRE         SUNNY     63  35  35 VRB3      30.12S
CUSTER         MOSUNNY   64  34  32 MISG      30.22F
ELLSWORTH AFB  SUNNY     72  41  32 VRB6      30.13F
PHILIP         SUNNY     70  42  36 W7        30.12F
PINE RIDGE     SUNNY     70  41  34 CALM      30.16F
WINNER         FAIR      65  32  29 N7        30.14S
$$

SDZ004>011-016>023-039-040-041800-
NORTHEAST SOUTH DAKOTA

CITY           SKY/WX    TMP DP  RH WIND       PRES   REMARKS
ABERDEEN       SUNNY     63  34  33 NW12      30.11F
WATERTOWN      SUNNY     62  33  33 N14G24    30.08S
BROOKINGS      SUNNY     60  35  39 NW13      30.07S
SISSETON         N/A     63  34  33 N17G24    30.07F
$$

SDZ017-020-022-023-036>040-048>070-041800-
SOUTHEAST SOUTH DAKOTA

CITY           SKY/WX    TMP DP  RH WIND       PRES   REMARKS
SIOUX FALLS    MOSUNNY   61  39  44 NW15      30.09R
HURON          SUNNY     61  35  37 NW14      30.11S
CHAMBERLAIN    SUNNY     63  40  41 N6        30.14S
MITCHELL       SUNNY     60  38  43 N13       30.12S
YANKTON        SUNNY     59  37  44 NW5       30.11R
$$

ABBREVIATIONS USED IN REMARKS
   TC - TEMPERATURE IN CELSIUS
  WCI - WIND CHILL INDEX
   HX - HEAT INDEX
  VSB - VISIBILITY




USA.gov is the U.S. government's official web portal to all federal, state and local government web resources and services.